STARLINK-32179, 60734

Orbit data source: Space-Track

STARLINK-32179, 60734 is a payload satellite owned by SpaceX/Seattle (US) in LEO that was launched on Wed, 28 Aug 2024 UTC via an FALCON 9 launch vehicle from the Air Force Eastern Test Range (AFETR). Payload-class satellites include a variety of spacecraft equipped with specific instruments for various scientific and technological missions. These include communications satellites like Starlink; space stations such as the ISS; scientific satellites like the Hubble; Earth observation satellites from companies like Planet Labs, Umbra, and HawkEye 360; GPS; miniature CubeSats for education and research; and military/defense satellites.

Loading next visibility...
Identifier
60734, 2024-152Q
Orbit
LEO
Country
Flag of USUS
Related business
Manufacturer
SpaceX/Seattle
Mission
Operational Commercial Communications
Bus & Motor
STARLINK V2M, Unknown motor
Mass
730 kg wet, ~700 kg dry
Launch date (UTC)
2024-08-28 (1 year ago)
Launch vehicle
FALCON 9
Launch site
Air Force Eastern Test Range (AFETR)
Object type
Payload
Rocket body
Debris
Shape & HBR
Box + 2 Pan, 17.7 m
Radar Cross Section
33.884 m², Large (>1 m²)

Expand to show TLE details & history
Last TLE update: 20 hours ago

TLE from 20 hours ago
0 STARLINK-32179
1 60734U 24152Q   25310.49448489  .00002911  00000-0  11035-3 0  9991
2 60734  53.1590 121.0455 0000745  70.1044 290.0037 15.30198008 67857
Epoch: 2025-11-06T11:52Z
TLE epoch observation values (Epoch: 2025-11-06T11:52:03.494Z)
Latitude
-0.00002°
Longitude
-102.92107°
Altitude
475.946 km
Speed
7.629 km/s
True Right ascension
08h 04m 10s
True Declination
0° 00' 00"
Sunlit
Object was in daylight at epoch
Visualization orbit readout
Latitude
Unknown
Longitude
Unknown
Altitude
Unknown
Speed
Unknown
Apparent Right ascension
Unknown
Apparent Declination
Unknown
Sunlit
N/A
Visualization observer readout
Local Sidereal Time
03:31:41
Azimuth
Unknown
Elevation
Unknown
Doppler factor
Unknown
Orbital elements
Apogee altitude
475.988 km
Perigee altitude
474.967 km
Semi-major axis
6,853.615 km
Eccentricity
0.00007
Inclination
53.159°
RAAN
121.0455°
Arg. of periapsis
70.1044°
True anomaly
289.99568°
Mean anomaly
290.0037°
Eccentric anomaly
289.99969°
Mean motion
3.82528 °/min
Orbital period
94.11 mins
BSTAR
0.00011035
Loading maneuver chart data...
Computing Atmospheric mass density...
Loading historical data...
Loading historical data...
Loading historical data...
Loading historical data...
Loading historical data...
Loading historical data...
Loading historical data...

Documentation

Showing up to 5 results
|